Location: Burera
(21.3780°N, 81.9534°E)
Time: 01:11:12
(UTC+00:00)

ASTEX 1 - Pass Details

Date: 13 August 2020
Orbit: 721 x 742 km, 92.7° (Epoch: 22 September)

Event Time Altitude Azimuth Distance (km) Brightness Sun altitude
Rises 23:12:59 0° 8° (N) 3,132 7.1 -13.5°
Reaches altitude 10° 23:15:16 10° 10° (N) 2,211 6.3 -13.0°
Maximum altitude 23:20:09 76° 96° (E) 749 3.6 -11.9°
Drops below altitude 10° 23:25:02 10° 182° (S) 2,215 5.7 -10.9°
Sets 23:27:20 0° 183° (S) 3,138 6.4 -10.4°
